Location: Hermaringen
(48.5952°N, 10.2585°E)
Time: 08:32:18
(UTC+00:00)

Courier 1B - Visible Passes

Search period start: 17 February 2026 00:00
Search period end: 27 February 2026 00:00
Orbit: 962 x 1208 km, 28.3° (Epoch: 16 February)

Date Brightness Start Highest point End Pass type
(mag) Time Alt. Az. Time Alt. Az. Time Alt. Az.
17 Feb 9.9 19:52:53 10° SSW 19:53:42 11° SSW 19:53:42 11° SSW visible
18 Feb 9.7 19:00:11 10° S 19:02:49 12° SSE 19:03:16 12° SSE visible
19 Feb 9.8 19:57:56 10° SSW 19:59:42 13° SSW 19:59:42 13° SSW visible
20 Feb 9.6 19:04:43 10° SSW 19:08:16 14° S 19:09:14 14° SSE visible
21 Feb 9.7 18:11:50 10° SSW 18:14:40 13° SSE 18:17:33 10° SE visible
21 Feb 9.8 20:03:36 10° SW 20:05:38 14° SSW 20:05:38 14° SSW visible
22 Feb 9.8 17:19:44 10° S 17:21:07 11° SSE 17:22:29 10° SSE visible
22 Feb 9.6 19:10:04 10° SSW 19:13:44 15° S 19:15:08 14° SSE visible
23 Feb 9.7 18:16:46 10° SSW 18:20:09 14° S 18:23:36 10° SSE visible
23 Feb 9.9 20:10:00 10° SSW 20:11:32 12° SSW 20:11:32 12° SSW visible
24 Feb 9.8 17:23:46 10° SSW 17:26:34 13° S 17:29:26 10° SSE visible
24 Feb 9.7 19:16:04 10° SSW 19:19:15 13° S 19:21:03 12° S visible
25 Feb 9.7 18:22:27 10° SSW 18:25:39 14° S 18:28:56 10° SSE visible
26 Feb 9.8 17:29:02 10° SSW 17:32:05 13° S 17:35:12 10° SSE visible
26 Feb 9.9 19:23:22 10° SSW 19:24:44 11° SSW 19:26:06 10° S visible
